[[{"header":{"parameterUnit":"m.s-1","parameterCategory":1,"la1":30.2991,"la2":30.254,"lo1":-89.0895,"lo2":-89.0444,"dy":0.0017,"dx":0.0017,"nx":28,"ny":28,"refTime":"2024-04-15T03:00:00:Z","depth":0,"parameterNumber":2,"parameterNumberName":"U-component_of_WINDS"},"data":[0,0,0,0,0,0,0,0,0,0,0,0,0,0,0,0,0,0,0,0,0,0,0,0,0,0,0,0,0,0,0,0,0,0,0,0,0,0,0,0,0,0,0,0,0,0,0,0,0,0,0,0,0,0,0,0,0,0,-0.4567,-0.4567,0,-0.4618,-0.4618,-0.4619,-0.4639,-0.4639,-0.4639,-0.4639,-0.4693,-0.4695,-0.4696,0,0,0,0,0,0,0,0,0,0,0,0,0,-0.449,-0.4491,-0.4567,-0.4567,-0.4568,-0.4618,-0.4618,-0.4619,-0.4639,-0.4639,-0.4639,-0.4639,-0.4693,-0.4694,-0.4696,0,0,0,0,0,0,0,0,0,0,0,0,0,-0.453,-0.4491,-0.4566,-0.4584,-0.4586,-0.4617,-0.4618,-0.4619,-0.4639,-0.4639,-0.4639,-0.4639,-0.4692,-0.4694,-0.4697,-0.4715,0,0,-0.4704,-0.4705,0,0,0,0,0,0,0,0,-0.4528,-0.4533,-0.4581,-0.4583,-0.4585,-0.4622,-0.4611,-0.4651,-0.4639,-0.4619,-0.4639,-0.4639,-0.467,-0.4674,-0.4684,-0.4717,-0.472,-0.4704,-0.4705,-0.4706,-0.4707,0,0,0,0,0,0,0,-0.4525,-0.4531,-0.4587,-0.4581,-0.4584,-0.459,-0.4596,-0.4619,-0.4645,-0.4621,-0.4623,-0.4628,-0.4671,-0.4682,-0.4685,-0.4721,-0.4704,-0.4706,-0.4707,-0.4708,-0.4773,-0.4773,0,0,0,0,0,0,-0.4519,-0.4528,-0.4585,-0.4588,-0.4555,-0.4592,-0.4598,-0.461,-0.4645,-0.465,-0.4628,-0.4629,-0.4678,-0.4683,-0.4687,-0.4712,-0.4706,-0.4709,-0.471,-0.4773,-0.4773,-0.4773,0,0,0,0,0,0,-0.4517,-0.4524,-0.4583,-0.4559,-0.4567,-0.4593,-0.4607,-0.4611,-0.4622,-0.465,-0.4655,-0.4634,-0.4678,-0.4684,-0.4708,-0.4714,-0.471,-0.4712,-0.4772,-0.4773,-0.4773,-0.476,0,0,0,0,0,0,-0.4515,-0.4523,-0.4529,-0.4559,-0.4568,-0.4602,-0.4607,-0.4613,-0.4626,-0.4627,-0.4657,-0.4662,-0.4678,-0.4704,-0.471,-0.4717,-0.4714,-0.4772,-0.4772,-0.4773,-0.476,-0.476,-0.476,0,0,0,0,0,-0.4512,-0.4524,-0.453,-0.4536,-0.4577,-0.4602,-0.4608,-0.4625,-0.4626,-0.4634,-0.4652,-0.4661,-0.4712,-0.4707,-0.4714,-0.4721,-0.4772,-0.4772,-0.4773,-0.476,-0.476,-0.476,0,0,0,0,0,0,-0.4495,-0.4528,-0.4535,-0.4556,-0.4576,-0.4606,-0.4615,-0.4625,-0.4645,-0.4646,-0.4668,-0.4674,-0.4696,-0.4711,-0.4704,-0.4741,-0.4743,-0.4745,-0.473,-0.4731,-0.473,-0.4726,-0.4716,0,0,0,0,0,-0.4494,-0.4511,-0.4539,-0.4556,-0.4566,-0.4589,-0.4601,-0.4613,-0.4634,-0.4643,-0.4663,-0.4685,-0.4706,-0.4719,-0.474,-0.4762,-0.477,-0.4771,-0.4771,-0.4771,-0.4772,-0.4786,-0.4787,-0.4776,-0.4776,-0.4776,0,0,-0.4492,-0.4512,-0.4521,-0.4553,-0.457,-0.4588,-0.4596,-0.4615,-0.4629,-0.4646,-0.467,-0.4685,-0.4711,-0.4734,-0.4746,-0.4747,-0.4777,-0.4771,-0.4771,-0.4773,-0.4787,-0.4788,-0.4789,-0.4776,-0.4776,-0.4776,0,0,-0.4497,-0.4513,-0.4529,-0.4546,-0.4571,-0.4587,-0.4591,-0.4619,-0.463,-0.4654,-0.4667,-0.4685,-0.4721,-0.4738,-0.4752,-0.4765,-0.4775,-0.4771,-0.4771,-0.4784,-0.4785,-0.4786,-0.4791,-0.4792,-0.4773,-0.4773,-0.4773,0,-0.4491,-0.4518,-0.4536,-0.4555,-0.4569,-0.4585,-0.4602,-0.4617,-0.4648,-0.4658,-0.4659,-0.4705,-0.4723,-0.4751,-0.4754,-0.4765,-0.4771,-0.4768,-0.4783,-0.4784,-0.4785,-0.4791,-0.4792,-0.4772,-0.4772,-0.4772,-0.4772,0,-0.451,-0.4529,-0.4539,-0.4568,-0.4583,-0.4601,-0.4622,-0.4636,-0.4647,-0.4662,-0.4687,-0.471,-0.4736,-0.4743,-0.4754,-0.4773,-0.4774,-0.4779,-0.4781,-0.4786,-0.4791,-0.4793,-0.4771,-0.4772,-0.4772,-0.4772,0,0,-0.4506,-0.4545,-0.4548,-0.4562,-0.4591,-0.4607,-0.4626,-0.4651,-0.4662,-0.4683,-0.47,-0.473,-0.4735,-0.4751,-0.4764,-0.4775,-0.4785,-0.4779,-0.478,-0.478,-0.4808,-0.4804,-0.4806,-0.4792,-0.4792,-0.4792,-0.4806,0,-0.4515,-0.4548,-0.4565,-0.4592,-0.461,-0.4626,-0.4643,-0.4663,-0.4679,-0.4697,-0.4715,-0.4736,-0.474,-0.475,-0.4762,-0.4781,-0.4791,-0.478,-0.4808,-0.4809,-0.4801,-0.4809,-0.4805,-0.4816,-0.4808,-0.4809,-0.4809,0,-0.453,-0.4551,-0.4578,-0.4607,-0.4615,-0.4629,-0.4654,-0.4671,-0.4695,-0.4706,-0.4723,-0.4736,-0.4758,-0.4758,-0.4789,-0.4781,-0.4794,-0.4805,-0.4806,-0.4809,-0.4809,-0.4813,-0.4821,-0.4822,-0.4812,-0.4812,-0.4812,0,-0.4524,-0.4559,-0.458,-0.4592,-0.4625,-0.4635,-0.4649,-0.4673,-0.4687,-0.4709,-0.4719,-0.4743,-0.4756,-0.4775,-0.4795,-0.4794,-0.4824,-0.4826,-0.4834,-0.4833,-0.4839,-0.4839,-0.4849,-0.4847,-0.4847,-0.4847,-0.4847,0,-0.4533,-0.455,-0.4578,-0.4591,-0.4611,-0.4631,-0.465,-0.4666,-0.4687,-0.4705,-0.472,-0.4736,-0.4761,-0.4781,-0.4797,-0.482,-0.4826,-0.4835,-0.4839,-0.4834,-0.4833,-0.4842,-0.4842,-0.4847,-0.4847,-0.4847,-0.4847,0,-0.453,-0.455,-0.4574,-0.4603,-0.4611,-0.4624,-0.465,-0.4664,-0.4681,-0.4702,-0.4709,-0.4735,-0.4758,-0.478,-0.4812,-0.4822,-0.4846,-0.4851,-0.4838,-0.484,-0.4846,-0.4846,-0.4864,-0.4868,-0.4863,-0.4863,-0.4863,0,-0.4534,-0.4547,-0.4578,-0.459,-0.4604,-0.4624,-0.4638,-0.4659,-0.4674,-0.4703,-0.4714,-0.4738,-0.4759,-0.4797,-0.4819,-0.4844,-0.485,-0.4854,-0.4853,-0.4848,-0.485,-0.4849,-0.4851,-0.4854,-0.4854,-0.4854,-0.4854,0,-0.4539,-0.4549,-0.4568,-0.4592,-0.4609,-0.4628,-0.4649,-0.4658,-0.4683,-0.4699,-0.4723,-0.474,-0.4772,-0.4797,-0.4824,-0.484,-0.4852,-0.4854,-0.4857,-0.4852,-0.4844,-0.4849,-0.4837,-0.4854,-0.4854,-0.4854,-0.4854,-0.4854,-0.454,-0.4553,-0.4576,-0.4598,-0.4616,-0.4635,-0.4649,-0.4668,-0.4688,-0.4715,-0.4727,-0.4752,-0.4777,-0.4814,-0.483,-0.4851,-0.4853,-0.4857,-0.4859,-0.4859,-0.4858,-0.484,-0.4856,-0.4856,-0.4856,-0.4856,-0.4856,0,-0.4547,-0.4563,-0.4583,-0.461,-0.4628,-0.4637,-0.466,-0.4674,-0.4696,-0.4717,-0.4738,-0.4766,-0.479,-0.4815,-0.4841,-0.4852,-0.4858,-0.4858,-0.4858,-0.4862,-0.4855,-0.485,-0.4853,-0.4853,-0.4853,-0.4853,-0.4853,-0.4853,-0.4552,-0.4574,-0.4586,-0.4617,-0.4634,-0.4658,-0.467,-0.4688,-0.4706,-0.4736,-0.4757,-0.4772,-0.4795,-0.4823,-0.4846,-0.4853,-0.4862,-0.4861,-0.4869,-0.4862,-0.4862,-0.4862,-0.4857,-0.4862,-0.4862,-0.4874,-0.4874,-0.4874]},{"header":{"parameterUnit":"m.s-1","parameterCategory":1,"la1":30.2991,"la2":30.254,"lo1":-89.0895,"lo2":-89.0444,"dy":0.0017,"dx":0.0017,"nx":28,"ny":28,"refTime":"2024-04-15T03:00:00:Z","depth":0,"parameterNumber":3,"parameterNumberName":"V-component_of_WINDS"},"data":[0,0,0,0,0,0,0,0,0,0,0,0,0,0,0,0,0,0,0,0,0,0,0,0,0,0,0,0,0,0,0,0,0,0,0,0,0,0,0,0,0,0,0,0,0,0,0,0,0,0,0,0,0,0,0,0,0,0,2.9493,2.9493,0,2.9466,2.9466,2.9466,2.9398,2.9396,2.9395,2.9393,2.9367,2.9367,2.9368,0,0,0,0,0,0,0,0,0,0,0,0,0,2.9486,2.9487,2.9493,2.9493,2.9493,2.9466,2.9466,2.9466,2.9398,2.9396,2.9394,2.9393,2.9367,2.9367,2.9368,0,0,0,0,0,0,0,0,0,0,0,0,0,2.9478,2.9487,2.9493,2.9455,2.9452,2.9466,2.9466,2.9465,2.9398,2.9396,2.9394,2.9392,2.9366,2.9367,2.9368,2.9418,0,0,2.9371,2.9372,0,0,0,0,0,0,0,0,2.9478,2.9478,2.9461,2.9458,2.9454,2.9433,2.9454,2.9449,2.9399,2.9419,2.9393,2.9391,2.9391,2.9389,2.9389,2.9416,2.9415,2.9371,2.9372,2.9372,2.9373,0,0,0,0,0,0,0,2.9479,2.9479,2.9483,2.9461,2.9457,2.944,2.9436,2.9453,2.9417,2.9417,2.9412,2.9409,2.9388,2.9388,2.9388,2.9415,2.9371,2.9372,2.9373,2.9373,2.948,2.9482,0,0,0,0,0,0,2.9485,2.948,2.9483,2.9482,2.9461,2.9442,2.9438,2.9442,2.9417,2.9411,2.9411,2.9406,2.9388,2.9387,2.9387,2.9442,2.9372,2.9373,2.9374,2.9477,2.948,2.9483,0,0,0,0,0,0,2.9485,2.9486,2.9484,2.9479,2.9478,2.9444,2.945,2.9443,2.9443,2.9413,2.9406,2.9418,2.9386,2.9386,2.941,2.944,2.9374,2.9374,2.9475,2.9478,2.9481,2.9553,0,0,0,0,0,0,2.9485,2.9486,2.9504,2.948,2.9478,2.9508,2.9451,2.9444,2.9444,2.9438,2.9417,2.9412,2.9384,2.9409,2.9411,2.944,2.9375,2.9472,2.9476,2.948,2.9547,2.9558,2.9567,0,0,0,0,0,2.9485,2.9526,2.9506,2.9507,2.95,2.951,2.9509,2.9476,2.9447,2.9465,2.9446,2.9412,2.9437,2.9412,2.9414,2.9444,2.947,2.9475,2.948,2.9543,2.9556,2.9567,0,0,0,0,0,0,2.9555,2.9522,2.9499,2.9534,2.9525,2.9498,2.952,2.9491,2.9491,2.9485,2.9445,2.9441,2.9471,2.946,2.9433,2.9489,2.9448,2.9453,2.9495,2.9507,2.9517,2.9518,2.9376,0,0,0,0,0,2.9575,2.9585,2.9556,2.9589,2.9586,2.9554,2.9557,2.9533,2.9522,2.9518,2.9501,2.9492,2.9497,2.9502,2.9505,2.9546,2.954,2.9567,2.9577,2.9585,2.959,2.961,2.9621,2.9499,2.9499,2.9499,0,0,2.9615,2.9598,2.9607,2.9603,2.9593,2.9604,2.9551,2.9566,2.9574,2.952,2.9542,2.9529,2.9517,2.9549,2.9563,2.9541,2.9623,2.9592,2.9599,2.9599,2.9616,2.9628,2.9638,2.9503,2.9502,2.9502,0,0,2.9694,2.9683,2.9708,2.97,2.9686,2.9664,2.9671,2.9648,2.9637,2.9659,2.9618,2.9628,2.9638,2.9631,2.9628,2.9705,2.9673,2.9707,2.9758,2.9777,2.9787,2.9795,2.9821,2.9831,2.9712,2.9713,2.9713,0,2.9746,2.9761,2.9726,2.9742,2.9741,2.9693,2.9719,2.9712,2.9701,2.9701,2.9677,2.9689,2.9677,2.9706,2.9725,2.9725,2.9731,2.9708,2.9788,2.9796,2.9803,2.9828,2.9838,2.9717,2.9716,2.9716,2.9715,0,2.9825,2.9836,2.9859,2.9848,2.9849,2.9871,2.9838,2.9844,2.982,2.9801,2.9823,2.9807,2.9806,2.9812,2.9789,2.9838,2.9825,2.9796,2.9752,2.982,2.9842,2.9851,2.9722,2.9721,2.972,2.9719,0,0,2.9946,2.9915,2.9924,2.9918,2.9899,2.9907,2.9926,2.9925,2.993,2.9924,2.9938,2.9948,2.9921,2.9918,2.9894,2.9911,2.9971,2.9879,2.9878,2.9895,3.0023,3.0044,3.0055,2.9951,2.9952,2.9954,3.0023,0,3.0019,3.0049,3.0018,3.0055,3.0064,3.0019,3.0035,3.0025,3.0009,3.0014,2.9996,3.0003,2.9966,2.9964,2.998,2.996,2.9995,2.9955,2.9963,2.9964,2.9966,3.0067,3.009,3.0156,3.0032,3.0033,3.0034,0,3.0108,3.0105,3.0143,3.012,3.0123,3.0139,3.0134,3.0141,3.0129,3.0115,3.0112,3.0082,3.0099,3.0059,3.0081,3.0054,3.0056,3.0047,3.0049,3.0047,3.0002,3.0067,3.0176,3.0186,3.0048,3.0047,3.0046,0,3.0192,3.0197,3.022,3.0216,3.0191,3.0203,3.0193,3.0179,3.018,3.0177,3.0177,3.0176,3.0175,3.0175,3.0146,3.0119,3.0171,3.0129,3.016,3.0161,3.0172,3.0171,3.0282,3.0176,3.0175,3.0175,3.0175,0,3.0276,3.03,3.0257,3.027,3.0296,3.026,3.0287,3.0272,3.026,3.027,3.0232,3.0242,3.0204,3.021,3.0187,3.0209,3.0209,3.0198,3.0192,3.0201,3.0202,3.02,3.0194,3.0178,3.0177,3.0177,3.0176,0,3.0373,3.0345,3.0366,3.0341,3.0335,3.0355,3.0333,3.0345,3.0325,3.0338,3.034,3.0309,3.0315,3.0286,3.0286,3.0271,3.0303,3.0289,3.0307,3.0302,3.0335,3.0332,3.0447,3.046,3.0347,3.0348,3.0349,0,3.0427,3.0445,3.0421,3.0425,3.0417,3.0424,3.0424,3.039,3.0392,3.0379,3.0392,3.0394,3.0394,3.0405,3.0383,3.0383,3.0368,3.0408,3.0368,3.0376,3.0367,3.0366,3.0367,3.0417,3.0418,3.0419,3.042,0,3.0527,3.0512,3.0514,3.0511,3.0513,3.0509,3.0503,3.0508,3.0471,3.0475,3.048,3.048,3.048,3.0482,3.0478,3.0467,3.0438,3.0433,3.044,3.0449,3.0458,3.0452,3.0329,3.043,3.0429,3.0429,3.0428,3.0428,3.0604,3.0616,3.0602,3.0605,3.0596,3.0591,3.0601,3.0582,3.0585,3.0582,3.0562,3.057,3.0557,3.0548,3.0541,3.0547,3.0527,3.0538,3.054,3.0543,3.0548,3.0458,3.0546,3.0546,3.0545,3.0545,3.0545,0,3.07,3.0688,3.0692,3.0684,3.0686,3.0658,3.0649,3.0653,3.0661,3.0651,3.0651,3.0657,3.0659,3.0637,3.0636,3.0645,3.0631,3.0646,3.0644,3.0642,3.0566,3.056,3.0657,3.0657,3.0657,3.0657,3.0657,3.0657,3.0751,3.0771,3.0754,3.077,3.0757,3.0765,3.0762,3.0757,3.0749,3.0756,3.0757,3.0743,3.0728,3.0726,3.0726,3.072,3.0721,3.074,3.0729,3.0658,3.0647,3.0637,3.063,3.0741,3.0741,3.0803,3.0804,3.0805]}]]